48P/Johnson (2025)

Japanese version
Home page
Updated on January 31, 2026

---------------------------------------------------------------------

* Profile

* Pictures

* Orbital Elements

Epoch 2025 May 5.0 TT = JDT 2460800.5
T 2025 Mar. 2.63973 TT                                  Pike
q   2.0065823            (2000.0)            P               Q
n   0.15057499     Peri.  216.77301     +0.82441586     +0.53002401
a   3.4991896      Node   110.06410     -0.45580942     +0.82968856
e   0.4265580      Incl.   12.20174     -0.33552387     +0.17518974
P   6.55
From 1063 observations 2018 Feb. 16-2025 Aug. 5, mean residual 0".6.
     Nongravitational parameters A1 = +0.37, A2 = +0.0473.

* Finding Charts

* Magnitudes Graph

        m1 = 14.5 + 5 log d +  5.0 log r          [    ,-260]  (             - 2024 June 15)
        m1 =  5.0 + 5 log d + 25   log r(t - 40)  [-260, 360]  (2024 June 15 - 2026 Feb. 25)
        m1 = 14.5 + 5 log d +  5.0 log r          [ 360,    ]  (2026 Feb. 25 -             )

---------------------------------------------------------------------

The orbital elements are published on M.P.E.C. 2025-P113.
The charts are made with StellaNavigator Ver.10 (AstroArts).
The magnitudes graphs are made with Comet for Windows.

---------------------------------------------------------------------

Copyright(C) Seiichi Yoshida (comet@aerith.net). All rights reserved.